Regional Weather Roundup
Issued by NWS

Home | Current Version | Previous Version | Graphics & Text | Print | Product List | Glossary On
Versions: 1 2 3 4 5 6 7 8 9 10 11 12 13 14 15 16 17 18 19 20 21 22 23 24 25 26 27 28 29 30 31 32 33 34 35 36 37 38 39 40 41 42 43 44 45 46 47 48 49 50
000
ASUS43 KFSD 291910
RWRSD

WEATHER ROUNDUP FOR SOUTH DAKOTA
NATIONAL WEATHER SERVICE SIOUX FALLS SD
100 PM CST THU JAN 29 2015

NOTE: "FAIR" INDICATES FEW OR NO CLOUDS BELOW 12,000 FEET WITH NO
SIGNIFICANT WEATHER AND/OR OBSTRUCTIONS TO VISIBILITY.


SDZ001>005-009-010-012>017-292000-
NORTHWEST AND NORTH CENTRAL SOUTH DAKOTA

CITY           SKY/WX    TMP DP  RH WIND       PRES   REMARKS
BUFFALO          N/A     39  20  46 W7        30.38F
FAITH            N/A     37  21  52 NW12      30.45F
MOBRIDGE       CLOUDY    34  21  59 N13       30.45F WCI  25
$$

SDZ012>016-024>037-041>051-057-063-072>074-292000-
SOUTHWEST AND SOUTH CENTRAL SOUTH DAKOTA

CITY           SKY/WX    TMP DP  RH WIND       PRES   REMARKS
RAPID CTY ARPT SUNNY     45  11  25 N10       30.45F
PIERRE         MOSUNNY   37  23  56 NW13      30.47F
CUSTER         SUNNY     40 -12  10 SE3       30.38F
ELLSWORTH AFB  SUNNY     44  15  31 N13       30.43F
PHILIP         SUNNY     42  22  44 N10       30.47F
PINE RIDGE     SUNNY     40  22  48 W7        30.47F
WINNER         FAIR      41  23  48 NW17      30.47S
$$

SDZ004>011-016>023-039-040-292000-
NORTHEAST SOUTH DAKOTA

CITY           SKY/WX    TMP DP  RH WIND       PRES   REMARKS
ABERDEEN       CLOUDY    26  18  71 N17       30.50R WCI  13
WATERTOWN      CLOUDY    25  19  78 N21       30.40S WCI  11
SISSETON         N/A     23  19  85 N18       30.44R WCI   9
$$

SDZ017-020-022-023-036>040-048>070-292000-
SOUTHEAST SOUTH DAKOTA

CITY           SKY/WX    TMP DP  RH WIND       PRES   REMARKS
SIOUX FALLS    CLOUDY    31  24  75 N21       30.41S WCI  18
HURON          CLOUDY    31  21  66 NW16G25   30.47S WCI  20
CHAMBERLAIN    SUNNY     34  23  63 NW16G25   30.47F WCI  24
MITCHELL       CLOUDY    32  22  66 N22G29    30.48S WCI  19
YANKTON        CLOUDY    36  25  64 NW16      30.45F
$$

ABBREVIATIONS USED IN REMARKS
   TC - TEMPERATURE IN CELSIUS
  WCI - WIND CHILL INDEX
   HX - HEAT INDEX
  VSB - VISIBILITY



USA.gov is the U.S. government's official web portal to all federal, state and local government web resources and services.